Tracking 32139 objects as of 16-Nov-2025
HD Live streaming from Space Station
objects crossing your sky now

STARLINK-34875

Track STARLINK-34875 now!
10-day predictions
STARLINK-34875 is classified as:


NORAD ID: 65689
Int'l Code: 2025-212P
Perigee: 481.4 km
Apogee: 483.2 km
Inclination: 53.2 °
Period: 94.1 minutes
Semi major axis: 6853 km
RCS: Unknown
Launch date: September 21, 2025
Source: United States (US)
Launch site: AIR FORCE WESTERN TEST RANGE (AFWTR)
Your satellite tracking list
Your tracking list is empty




NASA's NSSDC Master Catalog

Two Line Element Set (TLE):
1 65689U 25212P   25319.27640972  .00029698  00000-0  10102-2 0  9993
2 65689  53.1618 157.3054 0001354 109.2398 250.8749 15.30218040  9727
Source of the keplerian elements: AFSPC